Home > Weather > Fort-de-France > Past weeks

Flag for Martinique Weather for the Past 2 Weeks in Fort-de-France, Martinique

Now
77 °F

Passing clouds.


Feels Like: 79 °F
Forecast: 76 / 84 °F
Wind: 10 mph from East

Location: Le Lamentin Airport

Current Time: Feb 7, 2016 at 4:39:55 AM

Latest Report: Feb 7, 2016 at 4:00 AM


Visibility: N/A

Pressure: 29.98 "Hg

Humidity: 79%

Dew point: 70 °F

Location of Fort-de-FranceLocation

Historic Weather in Fort-de-France — Graph

°F

Fort-de-France Temperature Yesterday

Maximum temperature yesterday: 88 °F (at 11:30 AM)
Minimum temperature yesterday: 77 °F (at 2:00 AM)
Average temperature yesterday: 81 °F

High & Low Weather Summary for the Past Weeks

 TemperatureHumidityPressure
High88 °F (Feb 5, 12:00 PM)100% (Feb 5, 7:00 AM)30.12 "Hg (Feb 5, 7:00 AM)
Low66 °F (Feb 4, 5:00 AM)49% (Jan 28, 1:00 PM)29.86 "Hg (Feb 3, 3:30 PM)
Average78 °F72%30.00 "Hg
* Reported Jan 23 3:00 AM — Feb 7 3:30 AM, Fort-de-France, Weather by CustomWeather, © 2016

Note: Actual official high and low records may vary slightly from our data, if they occured in-between our weather recording intervals... More about our weather records

Advertising

Fort-de-France Weather History for the Previous 24 Hours

 ConditionsComfort  
Time TempWeatherWind HumidityBarometerVisibility
3:30 AM
Sun, Feb 7
77 °FPartly cloudy.12 mph79%30.01 "HgN/A
3:00 AM79 °FPartly cloudy.13 mph74%30.01 "HgN/A
2:30 AM77 °FPassing clouds.13 mph79%30.01 "HgN/A
2:00 AM79 °FPassing clouds.13 mph74%30.04 "HgN/A
1:30 AM79 °FPassing clouds.14 mph74%30.04 "HgN/A
1:00 AM79 °FPartly cloudy.14 mph74%30.04 "HgN/A
12:30 AM79 °FMostly cloudy.13 mph74%30.07 "HgN/A
12:00 AM79 °FPassing clouds.12 mph74%30.07 "HgN/A
11:30 PM
Sat, Feb 6
77 °FPassing clouds.10 mph79%30.07 "HgN/A
11:00 PM77 °FPartly cloudy.13 mph79%30.07 "HgN/A
10:30 PM79 °FPartly cloudy.14 mph79%30.07 "HgN/A
10:00 PM79 °FMostly cloudy.14 mph74%30.07 "HgN/A
9:30 PM79 °FPassing clouds.12 mph74%30.07 "HgN/A
9:00 PM79 °FPassing clouds.14 mph74%30.07 "HgN/A
8:30 PM79 °FPartly cloudy.13 mph74%30.07 "HgN/A
8:00 PM79 °FMostly cloudy.12 mph74%30.07 "HgN/A
7:00 PM79 °FPartly cloudy.13 mph79%30.04 "HgN/A
6:30 PM79 °FPassing clouds.13 mph74%30.04 "HgN/A
6:00 PM81 °FPartly sunny.13 mph74%30.01 "HgN/A
5:00 PM82 °FPartly sunny.18 mph66%30.01 "HgN/A
4:30 PM84 °FPassing clouds.18 mph66%30.01 "HgN/A
4:00 PM86 °FPassing clouds.18 mph59%30.01 "HgN/A
3:30 PM86 °FPartly sunny.20 mph59%30.01 "HgN/A
3:00 PM86 °FPartly sunny.17 mph59%30.01 "HgN/A
2:30 PM88 °FBroken clouds.21 mph55%30.01 "HgN/A
2:00 PM88 °FScattered clouds.17 mph55%30.01 "HgN/A
1:30 PM88 °FPartly sunny.18 mph55%30.04 "HgN/A
1:00 PM88 °FBroken clouds.18 mph55%30.04 "HgN/A
12:30 PM86 °FPartly sunny.18 mph59%30.07 "HgN/A
12:00 PM88 °FPassing clouds.21 mph55%30.07 "HgN/A
11:30 AM88 °FPassing clouds.18 mph55%30.07 "HgN/A
11:00 AM86 °FClear.17 mph55%30.09 "HgN/A
10:30 AM86 °FClear.20 mph49%30.09 "HgN/A
10:00 AM86 °FClear.18 mph49%30.09 "HgN/A
9:30 AM84 °FClear.20 mph51%30.09 "HgN/A
9:00 AM84 °FClear.15 mph55%30.09 "HgN/A
8:30 AM82 °FClear.13 mph58%30.09 "HgN/A
8:00 AM81 °FPassing clouds.10 mph62%30.09 "HgN/A
7:30 AM77 °FPassing clouds.12 mph74%30.07 "HgN/A
7:00 AM77 °FClear.8 mph69%30.07 "HgN/A
6:30 AM77 °FPassing clouds.12 mph79%30.04 "HgN/A
6:00 AM77 °FPartly cloudy.15 mph79%30.04 "HgN/A
5:30 AM77 °FPassing clouds.8 mph79%30.01 "HgN/A
5:00 AM77 °FClear.7 mph74%30.01 "HgN/A
4:30 AM77 °FClear.7 mph69%30.01 "HgN/A
4:00 AM77 °FClear.8 mph74%30.01 "HgN/A
Weather by CustomWeather, © 2016

See weather overviewHow to use our weather pages